1391040034978,1.06720
1391040094978,1.06526
1391040154978,1.06116
1391040214978,1.05779
1391040274978,1.07156
1391040334978,1.06812
1391040394978,1.08375
1391040454978,1.09658
1391040514978,1.08710
1391040574978,1.09555
1391040634978,1.09860
1391040694978,1.09082
1391040754978,1.09031
1391040814978,1.09402
1391040874978,1.08505
1391040934978,1.08498
1391040994978,1.07176
1391041054978,1.07818
1391041114978,1.07803
1391041174978,1.07540
1391041234978,1.06330
1391041294978,1.07156
1391041354978,1.06884
1391041414978,1.06820
1391041474978,1.06627
1391041534978,1.06948
1391041594978,1.06454
1391041654978,1.06433
1391041714978,1.06232
1391041774978,1.06253
1391041834978,1.06430
1391041894978,1.06897
1391041954978,1.06046
1391042014978,1.06652
1391042074978,1.06339
1391042134978,1.06625
1391042194978,1.06548
1391042254978,1.07982
1391042314978,1.08689
1391042374978,1.08660
1391042434978,1.09116
1391042494978,1.09284
1391042554978,1.08767
1391042614978,1.09360
1391042674978,1.09418
1391042734978,1.09200
1391042794978,1.08071
1391042854978,1.08356
1391042914978,1.08676
1391042974978,1.08431
1391043034978,1.09429
1391043094978,1.08464
1391043154978,1.09177
1391043214978,1.08118
1391043274978,1.08212
1391043334978,1.08187
1391043394978,1.08089
1391043454978,1.08429
1391043514978,1.08500
1391043574978,1.08655
1391043634990,1.08583
1391043694990,1.08875
1391043754990,1.08909
1391043814990,1.09877
1391043874990,1.09018
1391043934990,1.08977
1391043994990,1.09707
1391044054990,1.09055
1391044114990,1.09824
1391044174990,1.10361
1391044234990,1.09507
1391044294990,1.10607
1391044354990,1.09796
1391044414990,1.09574
1391044474990,1.08617
1391044534990,1.08616
1391044594990,1.09137
1391044654990,1.08489
1391044714990,1.09119
1391044774990,1.09047
1391044834990,1.09111
1391044894990,1.09106
1391044954990,1.09756
1391045014990,1.09942
1391045074990,1.09105
1391045134990,1.09751
1391045194990,1.09079
1391045254990,1.08218
1391045314990,1.08843
1391045374990,1.09259
1391045434990,1.09800
1391045494990,1.08198
1391045554990,1.08519
1391045614990,1.09092
1391045674990,1.09064
1391045734990,1.09452
1391045794990,1.08821
1391045854990,1.08622
1391045914990,1.09325
1391045974990,1.08955
1391046034990,1.07775
1391046094990,1.09327
1391046154990,1.08938
1391046214990,1.09276
1391046274990,1.08171
1391046334990,1.08755
1391046394990,1.08447
1391046454990,1.08147
1391046514990,1.07749
1391046574990,1.07847
1391046634990,1.07653
1391046694990,1.07456
1391046754990,1.07673
1391046814990,1.07381
1391046874990,1.07581
1391046934990,1.07638
1391046994990,1.08295
1391047054990,1.07967
1391047114990,1.07825
1391047174990,1.07745
1391047225002,1.07665
1391047285002,1.07988
1391047345002,1.07422
1391047405002,1.07527
1391047465002,1.07441
1391047525002,1.07989
1391047585002,1.08533
1391047645002,1.08816
1391047705002,1.07601
1391047765002,1.07853
1391047825002,1.08259
1391047885002,1.07923
1391047945002,1.07451
1391048005002,1.07972
1391048065002,1.07245
1391048125002,1.07016
1391048185002,1.08045
1391048245002,1.07578
1391048305002,1.07340
1391048365002,1.07350
1391048425002,1.06675
1391048485002,1.07638
1391048545002,1.06516
1391048605002,1.06817
1391048665002,1.07068
1391048725002,1.07334
1391048785002,1.07845
1391048845002,1.07346
1391048905002,1.08005
1391048965002,1.08324
1391049025002,1.08115
1391049085002,1.09096
1391049145002,1.07929
1391049205002,1.09236
1391049265002,1.09386
1391049325002,1.10036
1391049385002,1.09123
1391049445002,1.09657
1391049505002,1.10775
1391049565002,1.10718
1391049625002,1.10759
1391049685002,1.10089
1391049745002,1.11655
1391049805002,1.11838
1391049865002,1.10946
1391049925002,1.11548
1391049985002,1.11093
1391050045002,1.11897
1391050105002,1.11564
1391050165002,1.10939
1391050225002,1.12251
1391050285002,1.12169
1391050345002,1.12157
1391050405002,1.10958
1391050465002,1.11916
1391050525002,1.12214
1391050585002,1.12248
1391050645002,1.13086
1391050705002,1.12809
1391050765002,1.13671
1391050825014,1.13173
1391050885014,1.14009
1391050945014,1.14201
1391051005014,1.14561
1391051065014,1.14050
1391051125014,1.14485
1391051185014,1.14853
1391051245014,1.14621
1391051305014,1.15066
1391051365014,1.13763
1391051425014,1.13792
1391051485014,1.13952
1391051545014,1.12949
1391051605014,1.13014
1391051665014,1.12367
1391051725014,1.13321
1391051785014,1.12557
1391051845014,1.12083
1391051905014,1.12627
1391051965014,1.11288
1391052025014,1.11435
1391052085014,1.11440
1391052145014,1.11687
1391052205014,1.26771
1391052265014,1.11635
1391052325014,1.10981
1391052385014,1.10623
1391052445014,1.10445
1391052505014,1.10467
1391052565014,1.09829
1391052625014,1.10251
1391052685014,1.09485
1391052745014,1.09716
1391052805014,1.10139
1391052865014,1.10410
1391052925014,1.09590
1391052985014,1.09492
1391053045014,1.09484
1391053105014,1.09122
1391053165014,1.08890
1391053225014,1.09069
1391053285014,1.08549
1391053345014,1.10023
1391053405014,1.09448
1391053465014,1.08296
1391053525014,1.08536
1391053585014,1.08555
1391053645014,1.09032
1391053705014,1.08555
1391053765014,1.08443
1391053825014,1.08237
1391053885014,1.07826
1391053945014,1.08497
1391054005014,1.08464
1391054065014,1.09211
1391054125014,1.07691
1391054185014,1.07649
1391054245014,1.08177
1391054305014,1.08115
1391054365014,1.08021
1391054425026,1.07839
1391054485026,1.07427
1391054545026,1.07393
1391054605026,1.08103
1391054665026,1.07908
1391054725026,1.07997
1391054785026,1.06705
1391054845026,1.06495
1391054905026,1.08180
1391054965026,1.07422
1391055025026,1.07873
1391055085026,1.07105
1391055145026,1.07598
1391055205026,1.07536
1391055265026,1.08774
1391055325026,1.08826
1391055385026,1.07748
1391055445026,1.08905
1391055505026,1.08052
1391055565026,1.09739
1391055625026,1.09638
1391055685026,1.08749
1391055745026,1.09239
1391055805026,1.08857
1391055865026,1.10460
1391055925026,1.09969
1391055985026,1.09942
1391056045026,1.10929
1391056105026,1.11452
1391056165026,1.09830
1391056225026,1.10105
1391056285026,1.10375
1391056345026,1.10815
1391056405026,1.12214
1391056465026,1.11005
1391056525026,1.11416
1391056585026,1.11661
1391056645026,1.12754
1391056705026,1.13125
1391056765026,1.12581
1391056825026,1.13401
1391056885026,1.13125
1391056945026,1.13284
1391057005026,1.14609
1391057065026,1.14038
1391057125026,1.15558
1391057185026,1.14389
1391057245026,1.14716
1391057305026,1.14921
1391057365026,1.14247
1391057425026,1.15896
1391057485026,1.16241
1391057545026,1.15133
1391057605026,1.15629
1391057665026,1.15387
1391057725026,1.15369
1391057785026,1.15040
1391057845026,1.14447
1391057905026,1.13754
1391057965026,1.13613
1391058025039,1.13051
1391058085039,1.13388
1391058145039,1.13855
1391058205039,1.12796
1391058265039,1.11840
1391058325039,1.12104
1391058385039,1.11658
1391058445039,1.11410
1391058505039,1.11886
1391058565039,1.11165
1391058625039,1.11364
1391058685039,1.11844
1391058745039,1.10796
1391058805039,1.11721
1391058865039,1.09643
1391058925039,1.10258
1391058985039,1.09998
1391059045039,1.09043
1391059105039,1.09544
1391059165039,1.09790
1391059225039,1.09049
1391059285039,1.08733
1391059345039,1.08638
1391059405039,1.08148
1391059465039,1.08895
1391059525039,1.09028
1391059585039,1.08959
1391059645039,1.08295
1391059705039,1.08330
1391059765039,1.08779
1391059825039,1.08507
1391059885039,1.09049
1391059945039,1.09085
1391060005039,1.09625
1391060065039,1.08908
1391060125039,1.08511
1391060185039,1.09282
1391060245039,1.07429
1391060305039,1.08058
1391060365039,1.08083
1391060425039,1.08543
1391060485039,1.08278
1391060545039,1.08218
1391060605039,1.08467
1391060665039,1.09017
1391060725039,1.08396
1391060785039,1.08707
1391060845039,1.08119
1391060905039,1.08603
1391060965039,1.10328
1391061025039,1.09515
1391061085039,1.08909
1391061145039,1.09177
1391061205039,1.08168
1391061265039,1.08799
1391061325039,1.08513
1391061385039,1.08695
1391061445039,1.08803
1391061505039,1.08454
1391061565039,1.08057
1391061625052,1.08998
1391061685052,1.08479
1391061745052,1.08082
1391061805052,1.07766
1391061865052,1.08834
1391061925052,1.08940
1391061985052,1.08449
1391062045052,1.09565
1391062105052,1.09765
1391062165052,1.10463
1391062225052,1.10917
1391062285052,1.10682
1391062345052,1.11228
1391062405052,1.11800
1391062465051,1.11598
1391062525051,1.10519
1391062585051,1.11527
1391062645051,1.11343
1391062705052,1.10889
1391062765052,1.12685
1391062825052,1.11036
1391062885052,1.11799
1391062945052,1.10335
1391063005052,1.10642
1391063065052,1.09584
1391063125052,1.09535
1391063185052,1.08735
1391063245052,1.08159
1391063305052,1.08491
1391063365052,1.08606
1391063425052,1.07744
1391063485052,1.07723
1391063545052,1.08362
1391063605052,1.08684
1391063665052,1.07949
1391063725052,1.08361
1391063785051,1.10933
1391063845051,1.15579
1391063905051,1.21829
1391063965051,1.30168
1391064025052,1.33548
1391064085052,1.27721
1391064145052,1.24317
1391064205052,1.23432
1391064265052,1.23822
1391064325052,1.22149
1391064385052,1.23919
1391064445052,1.23245
1391064505052,1.23858
1391064565052,1.25200
1391064625052,1.25517
1391064685052,1.28276
1391064745052,1.30577
1391064805052,1.32803
1391064865052,1.34000
1391064925052,1.33456
1391064985052,1.33516
1391065045052,1.35010
1391065105052,1.35363
1391065165051,1.35618
1391065225064,1.37134
1391065285064,1.36122
1391065345064,1.36383
1391065405064,1.35537
1391065465064,1.34618
1391065525064,1.34786
1391065585064,1.33474
1391065645064,1.33298
1391065705064,1.33266
1391065765064,1.31860
1391065825064,1.32936
1391065885064,1.32167
1391066425064,1.25299
1391066485064,1.25136
1391066545064,1.23623
1391066605064,1.22677
1391066665064,1.21741
1391066725064,1.21111
1391066785064,1.20708
1391066845064,1.19123
1391066905064,1.18232
1391066965064,1.18623
1391067025064,1.16975
1391067085064,1.16915
1391067145064,1.15948
1391067205064,1.16201
1391067265064,1.14587
1391067325064,1.15061
1391067385064,1.14536
1391067445064,1.13192
1391067505064,1.13647
1391067565064,1.13871
1391067625064,1.13327
1391067685064,1.13249
1391067745064,1.12213
1391067805064,1.12122
1391067865064,1.11830
1391067925064,1.12541
1391067985064,1.13443
1391068045064,1.13528
1391068105064,1.14446
1391068165064,1.13132
1391068225064,1.13190
1391068285064,1.13792
1391068345064,1.13446
1391068405064,1.13133
1391068465064,1.13527
1391068525064,1.13468
1391068585064,1.13137
1391068645064,1.12798
1391068705064,1.12829
1391068765064,1.13827
1391068825077,1.14612
1391068885077,1.14506
1391068945077,1.15737
1391069005077,1.17151
1391069065077,1.18439
1391069125077,1.19556
1391069185077,1.19823
1391069245077,1.22713
1391069305077,1.23097
1391069365077,1.24209
1391069425077,1.25578
1391069485077,1.27095
1391069545077,1.25978
1391069605077,1.28433
1391069665077,1.29076
1391069725077,1.29349
1391069785077,1.28913
1391069845077,1.29545
1391069905077,1.29025
1391069965077,1.28824
1391070025077,1.29053
1391070085077,1.28889
1391070145077,1.29579
1391070205077,1.29285
1391070265077,1.30741
1391070325077,1.30396
1391070385077,1.30980
1391070445077,1.30254
1391070505077,1.30384
1391070565077,1.29484
1391070625077,1.30339
1391070685077,1.30559
1391070745077,1.30550
1391070805077,1.29214
1391070865077,1.29442
1391070925077,1.29602
1391070985077,1.29441
1391071045077,1.29515
1391071105077,1.29207
1391071165077,1.28705
1391071225077,1.29685
1391071285077,1.28687
1391071345077,1.28906
1391071405077,1.28357
1391071465077,1.28816
1391071525077,1.28703
1391071585077,1.27288
1391071645077,1.26951
1391071705077,1.27241
1391071765077,1.26930
1391071825077,1.26349
1391071885077,1.25787
1391071945077,1.26535
1391072005077,1.26163
1391072065077,1.24229
1391072125077,1.24191
1391072185077,1.24243
1391072245077,1.21940
1391072305077,1.22053
1391072365077,1.22316
1391072425090,1.21742
1391072485090,1.20946
1391072545090,1.19961
1391072605090,1.19919
1391072665090,1.18611
1391072725090,1.19062
1391072785090,1.17936
1391072845090,1.17641
1391072905090,1.16855
1391072965090,1.17218
1391073025090,1.16360
1391073085090,1.16085
1391073145090,1.15344
1391073205090,1.16307
1391073265090,1.14867
1391073325090,1.14452
1391073385090,1.13932
1391073445090,1.13417
1391073505090,1.14164
1391073565090,1.12592
1391073625090,1.12961
1391073685090,1.12353
1391073745090,1.12579
1391073805090,1.12206
1391073865090,1.12635
1391073925090,1.12064
1391073985090,1.11714
1391074045090,1.12037
1391074105090,1.10910
1391074165090,1.10903
1391074225090,1.11929
1391074285090,1.10488
1391074345090,1.10023
1391074405090,1.09677
1391074465090,1.09676
1391074525090,1.09393
1391074585090,1.09954
1391074645090,1.09931
1391074705090,1.09143
1391074765090,1.08820
1391074825090,1.08711
1391074885090,1.08344
1391074945090,1.08260
1391075005090,1.08470
1391075065090,1.08238
1391075125090,1.08437
1391075185090,1.08552
1391075245090,1.07649
1391075305090,1.07082
1391075365090,1.08281
1391075425090,1.08275
1391075485090,1.08223
1391075545090,1.08327
1391075605090,1.09187
1391075665090,1.08900
1391075725090,1.09984
1391075785090,1.11038
1391075845090,1.10625
1391075905090,1.11221
1391075965090,1.10545
1391076025103,1.13681
1391076085103,1.11896
1391076145103,1.13304
1391076205103,1.15071
1391076265103,1.15202
1391076325103,1.14055
1391076385103,1.13264
1391076445103,1.14206
1391076505103,1.13408
1391076565103,1.12601
1391076625103,1.12957
1391076685103,1.12416
1391076745103,1.11954
1391076805103,1.10834
1391076865103,1.12466
1391076925103,1.11730
1391076985103,1.11148
1391077045103,1.11003
1391077105103,1.10732
1391077165103,1.09591
1391077225103,1.10750
1391077285103,1.09701
1391077345103,1.09836
1391077405103,1.09789
1391077465103,1.08695
1391077525103,1.08962
1391077585103,1.09248
1391077645103,1.09469
1391077705103,1.09048
1391077765103,1.09995
1391077825103,1.08665
1391077885103,1.08873
1391077945103,1.08570
1391078005103,1.08692
1391078065103,1.08903
1391078125103,1.08425
1391078185103,1.08731
1391078245103,1.07900
1391078305103,1.08941
1391078365103,1.08840
1391078425103,1.08526
1391078485103,1.08453
1391078545103,1.08098
1391078605103,1.07548
1391078665103,1.07297
1391078725103,1.07716
1391078785103,1.07626
1391078845103,1.07892
1391078905103,1.08266
1391078965103,1.08601
1391079025103,1.08858
1391079085103,1.08368
1391079145103,1.08656
1391079205103,1.10087
1391079265103,1.10168
1391079325103,1.10333
1391079385103,1.11151
1391079445103,1.12245
1391079505103,1.12129
1391079565103,1.13271
1391079625117,1.14599
1391079685117,1.16805
1391079745117,1.16740
1391079805117,1.16556
1391079865117,1.18712
1391079925117,1.18248
1391079985117,1.19247
1391080045117,1.17974
1391080105117,1.18764
1391080165117,1.19185
1391080225117,1.18972
1391080285117,1.19423
1391080345117,1.19816
1391080405117,1.19512
1391080465117,1.19295
1391080525117,1.19943
1391080585117,1.19890
1391080645117,1.20589
1391080705117,1.20429
1391080765117,1.19829
1391080825117,1.19529
1391080885117,1.19882
1391080945117,1.19205
1391081005117,1.19082
1391081065117,1.18943
1391081125117,1.18555
1391081185117,1.18533
1391081245117,1.18955
1391081305117,1.18410
1391081365117,1.18640
1391081425117,1.18248
1391081485117,1.18382
1391081545117,1.18745
1391081605117,1.18349
1391081665117,1.17855
1391081725117,1.16185
1391081785117,1.16861
1391081845117,1.16525
1391081905117,1.16274
1391081965117,1.15792
1391082025117,1.15880
1391082085117,1.16172
1391082145117,1.15330
1391082205117,1.14626
1391082265117,1.14911
1391082325117,1.13813
1391082385117,1.14364
1391082445117,1.14062
1391082505117,1.13675
1391082565117,1.12867
1391082625117,1.13536
1391082685117,1.14277
1391082745117,1.13562
1391082805117,1.14809
1391082865117,1.15288
1391082925117,1.15502
1391082985117,1.15781
1391083045117,1.14517
1391083105117,1.15093
1391083165117,1.15398
1391083225130,1.14164
1391083285130,1.14823
1391083345130,1.14728
1391083405130,1.14323
1391083465130,1.14255
1391083525130,1.14434
1391083585130,1.13218
1391083645130,1.13129
1391083705130,1.13646
1391083765130,1.12790
1391083825130,1.13224
1391083885130,1.12540
1391083945130,1.12574
1391084005130,1.12383
1391084065130,1.12399
1391084125130,1.11341
1391084185130,1.11468
1391084245130,1.11045
1391084305130,1.10609
1391084365130,1.10010
1391084425130,1.10244
1391084485130,1.10269
1391084545130,1.09128
1391084605130,1.10229
1391084665130,1.10260
1391084725130,1.08672
1391084785130,1.09440
1391084845130,1.10060
1391084905130,1.09623
1391084965130,1.09583
1391085025130,1.09801
1391085085130,1.09944
1391085145130,1.09257
1391085205130,1.10028
1391085265130,1.09894
1391085325130,1.10074
1391085385130,1.09200
1391085445130,1.09167
1391085505130,1.08307
1391085565130,1.08298
1391085625130,1.08455
1391085685130,1.08703
1391085745130,1.08400
1391085805130,1.08283
1391085865130,1.07215
1391085925130,1.07617
1391085985130,1.08127
1391086045130,1.07234
1391086105130,1.07651
1391086165130,1.06955
1391086225130,1.07250
1391086285130,1.07075
1391086345130,1.07432
1391086405130,1.07017
1391086465130,1.06856
1391086525130,1.06442
1391086585130,1.06051
1391086645130,1.06287
1391086705130,1.05690
1391086765130,1.06326
1391086825143,1.06204
1391086885143,1.05940
1391086945143,1.05739
1391087005143,1.05672
1391087065143,1.06211
1391087125143,1.06088
1391087185143,1.05262
1391087245143,1.06573
1391087305143,1.06061
1391087365143,1.06357
1391087425143,1.06580
1391087485143,1.07626
1391087545143,1.07110
1391087605143,1.07275
1391087665143,1.08093
1391087725143,1.08432
1391087785143,1.08111
1391087845143,1.07821
1391087905143,1.09227
1391087965143,1.08843
1391088025143,1.08293
1391088085143,1.07795
1391088145143,1.06798
1391088205143,1.06908
1391088265143,1.06632
1391088325143,1.05851
1391088385143,1.05802
1391088445143,1.05218
1391088505143,1.04227
1391088565143,1.04523
1391088625143,1.04304
1391088685143,1.04439
1391097385168,1.27804
1391097445168,1.36223
1391097505168,1.44168
1391097565168,1.49347
1391097625180,1.54896
1391097685180,1.56144
1391097745180,1.59524
1391097805180,1.65309
1391097865180,1.74107
1391097925180,1.80922
1391097985180,1.87574
1391098045180,1.95565
1391098105180,2.03122
1391098165180,2.09873
1391098225180,2.19511
1391098285180,2.26533
1391098345180,2.35484
1391098405180,2.42771
1391098465180,2.50240
1391098525180,2.56978
1391098585180,2.60262
1391098645180,2.65833
1391098705180,2.69634
1391098765180,2.74603
1391098825180,2.74380
1391098885180,2.77190
1391098945180,2.76323
1391099005180,2.76038
1391099065180,2.71760
1391099125180,2.69672
1391099185180,2.64627
1391099245180,2.60765
1391099305180,2.54596
1391099365180,2.51073
1391099425180,2.46059
1391099485180,2.41489
1391099545180,2.35567
1391099605180,2.32861
1391099665180,2.28574
1391099725180,2.25395
1391099785180,2.20457
1391099845180,2.16849
1391099905180,2.14732
1391099965180,2.09531
1391100025180,2.05279
1391100085180,2.03329
1391100145180,1.99350
1391100205180,1.97936
1391100265180,1.93042
1391100325180,1.91182
1391100385180,1.88373
1391100445180,1.85267
1391100505180,1.82788
1391100565180,1.81083
1391100625180,1.77905
1391100685180,1.77667
1391100745180,1.74389
1391100805180,1.74080
1391100865180,1.71445
1391100925180,1.69994
1391100985180,1.68613
1391101045180,1.66282
1391101105180,1.64527
1391101165180,1.62570
1391101225193,1.61729
1391101285193,1.61348
1391101345193,1.58501
1391101405193,1.56552
1391101465193,1.56801
1391101525193,1.54315
1391101585193,1.53802
1391101645193,1.51844
1391101705193,1.52842
1391101765193,1.49652
1391101825193,1.48978
1391101885193,1.48551
1391101945193,1.46586
1391102005193,1.45686
1391102065193,1.44826
1391102125193,1.43625
1391102185193,1.42220
1391102245193,1.42522
1391102305193,1.41497
1391102365193,1.40061
1391102425193,1.40465
1391102485193,1.40218
1391102545193,1.38263
1391102605193,1.37711
1391102665193,1.37139
1391102725193,1.35965
1391102785193,1.36302
1391102845193,1.33999
1391102905193,1.34498
1391102965193,1.33977
1391103025193,1.33448
1391103085193,1.31426
1391103145193,1.30708
1391103205193,1.30703
1391103265193,1.30392
1391103325193,1.29408
1391103385193,1.28589
1391103445193,1.28837
1391103505193,1.28427
1391103565193,1.27469
1391103625193,1.27814
1391103685193,1.26309
1391103745193,1.25922
1391103805193,1.25377
1391103865193,1.25660
1391103925193,1.24582
1391103985193,1.24504
1391104045193,1.23818
1391104105193,1.23293
1391104165193,1.22637
1391104225193,1.22839
1391104285193,1.22411
1391104345193,1.21022
1391104405193,1.19973
1391104465193,1.20675
1391104525193,1.20423
1391104585193,1.19241
1391104645193,1.19180
1391104705193,1.17950
1391104765193,1.19009
1391104825206,1.16740
1391104885206,1.18525
1391104945206,1.17083
1391105005206,1.17156
1391105065206,1.17442
1391105125206,1.16053
1391105185206,1.15907
1391105245206,1.16830
1391105305206,1.15978
1391105365206,1.16299
1391105425206,1.16195
1391105485206,1.15744
1391105545206,1.15087
1391105605206,1.14499
1391105665206,1.14762
1391105725206,1.14512
1391105785206,1.14172
1391105845206,1.13923
1391105905206,1.14657
1391105965206,1.13952
1391106025206,1.14099
1391106085206,1.14056
1391106145206,1.13935
1391106205206,1.13555
1391106265206,1.12989
1391106325206,1.12960
1391106385206,1.12287
1391106445206,1.13252
1391106505206,1.12760
1391106565206,1.13156
1391106625206,1.12599
1391106685206,1.12485
1391106745206,1.12587
1391106805206,1.12583
1391106865206,1.12128
1391106925206,1.12097
1391106985206,1.11717
1391107045206,1.11643
1391107105206,1.11819
1391107165206,1.11398
1391107225206,1.10340
1391107285206,1.10900
1391107345206,1.10404
1391107405206,1.10320
1391107465206,1.10677
1391107525206,1.10403
1391107585206,1.10453
1391107645206,1.09761
1391107705206,1.09626
1391107765206,1.09739
1391107825206,1.10564
1391107885206,1.09687
1391107945206,1.09842
1391108005206,1.09169
1391108065206,1.10136
1391108125206,1.09257
1391108185206,1.09266
1391108245206,1.09211
1391108305206,1.09258
1391108365206,1.08948
1391108425219,1.08857
1391108485219,1.08654
1391108545219,1.08605
1391108605219,1.08990
1391108665219,1.07897
1391108725219,1.08023
1391108785219,1.07646
1391108845219,1.07811
1391108905219,1.08522
1391108965219,1.07664
1391109025219,1.07986
1391109085219,1.08095
1391109145219,1.07116
1391109205219,1.07075
1391109265219,1.07592
1391109325219,1.07171
1391109385219,1.06329
1391109445219,1.08216
1391109505219,1.06573
1391109565219,1.07550
1391109625219,1.06019
1391109685219,1.06313
1391109745219,1.06300
1391109805219,1.06513
1391109865219,1.06431
1391109925219,1.05988
1391109985219,1.05953
1391110045219,1.06599
1391110105219,1.06366
1391110165219,1.06174
1391110225219,1.06059
1391110285219,1.05911
1391110345219,1.05395
1391110405219,1.05628
1391110465219,1.05964
1391110525219,1.06325
1391110585219,1.06012
1391110645219,1.05960
1391110705219,1.05849
1391110765219,1.06482
1391110825219,1.05983
1391110885219,1.06279
1391110945219,1.06682
1391111005219,1.06142
1391111065219,1.07195
1391111125219,1.06014
1391111185219,1.06498
1391111245219,1.05760
1391111305219,1.06623
1391111365219,1.05013
1391111425219,1.06201
1391111485219,1.06447
1391111545219,1.04675
1391111605219,1.06182
1391111665219,1.05994
1391111725219,1.05897
1391111785219,1.06059
1391111845219,1.05655
1391111905219,1.06084
1391111965219,1.05254
1391112025232,1.06026
1391112085232,1.05882
1391112145232,1.06131
1391112205232,1.05910
1391112265232,1.06097
1391112325232,1.06563
1391112385232,1.05940
1391112445232,1.05441
1391112505232,1.05495
1391112565232,1.06047
1391112625232,1.05189
1391112685232,1.05468
1391112745232,1.05874
1391112805232,1.04987
1391112865232,1.04878
1391112925232,1.05941
1391112985232,1.05489
1391113045232,1.05967
1391113105232,1.06142
1391113165232,1.06293
1391113225232,1.06303
1391113285232,1.07187
1391113345232,1.06561
1391113405232,1.06746
1391113465232,1.06838
1391113525232,1.06843
1391113585232,1.06424
1391113645232,1.06178
1391113705232,1.06822
1391113765232,1.06925
1391113825232,1.06682
1391113885232,1.06528
1391113945232,1.06468
1391114005232,1.06442
1391114065232,1.06923
1391114125232,1.06316
1391114185232,1.06403
1391114245232,1.07023
1391114305232,1.06765
1391114365232,1.06590
1391114425232,1.06860
1391114485232,1.07639